This demonstration page uses our WeatherBlox Daily Observations layout. Learn more.

Left ArrowRight Arrow

Hourly Observations for April 25, 2016

Temp ( °F °C ) Dew Point ( °F °C ) Humidity (%) Winds ( mph kmh ) Pressure ( in mb ) Visibility ( mi km ) Precip ( " mm )
12:15 am 00:15 Clear 54 12 39 4 58 58 WNW 9 15 29.59 1002 10 16 0.00 0.00
12:35 am 00:35 Clear 54 12 39 4 58 58 W 12 19 29.59 1002 10 16 0.00 0.00
12:55 am 00:55 Clear 54 12 39 4 58 58 WNW 14 22 29.59 1002 10 16 0.00 0.00
1:15 am 01:15 Clear 54 12 37 3 54 54 W 10 17 29.65 1004 10 16 0.00 0.00
1:35 am 01:35 Clear 52 11 37 3 58 58 W 10 17 29.65 1004 10 16 0.00 0.00
1:55 am 01:55 Clear 52 11 37 3 58 58 W 10 17 29.68 1005 10 16 0.00 0.00
2:15 am 02:15 Clear 52 11 37 3 58 58 W 10 17 29.68 1005 10 16 0.00 0.00
2:35 am 02:35 Clear 50 10 37 3 62 62 W 9 15 29.68 1005 10 16 0.00 0.00
2:55 am 02:55 Clear 50 10 37 3 62 62 W 10 17 29.68 1005 10 16 0.00 0.00
3:15 am 03:15 Clear 48 9 37 3 66 66 W 9 15 29.68 1005 10 16 0.00 0.00
3:35 am 03:35 Clear 48 9 37 3 66 66 W 8 13 29.68 1005 10 16 0.00 0.00
3:55 am 03:55 Clear 48 9 37 3 66 66 W 8 13 29.68 1005 10 16 0.00 0.00
4:15 am 04:15 Clear 46 8 37 3 71 71 WNW 8 13 29.71 1006 10 16 0.00 0.00
4:35 am 04:35 Clear 46 8 37 3 71 71 W 9 15 29.71 1006 10 16 0.00 0.00
4:55 am 04:55 Clear 46 8 37 3 71 71 W 7 11 29.71 1006 10 16 0.00 0.00
5:15 am 05:15 Clear 46 8 37 3 71 71 W 12 19 29.71 1006 10 16 0.00 0.00
5:35 am 05:35 Clear 46 8 37 3 71 71 W 8 13 29.71 1006 10 16 0.00 0.00
5:55 am 05:55 Clear 45 7 37 3 76 76 WNW 7 11 29.71 1006 10 16 0.00 0.00
6:15 am 06:15 Clear 45 7 37 3 76 76 W 8 13 29.71 1006 10 16 0.00 0.00
6:35 am 06:35 Clear 45 7 36 2 71 71 SW 8 13 29.74 1007 10 16 0.00 0.00
6:55 am 06:55 Sunny 45 7 36 2 71 71 W 8 13 29.74 1007 10 16 0.00 0.00
7:15 am 07:15 Sunny 45 7 36 2 71 71 W 7 11 29.74 1007 10 16 0.00 0.00
7:35 am 07:35 Sunny 46 8 36 2 66 66 W 7 11 29.77 1008 10 16 0.00 0.00
7:55 am 07:55 Sunny 46 8 37 3 71 71 W 7 11 29.77 1008 10 16 0.00 0.00
8:15 am 08:15 Sunny 46 8 37 3 71 71 W 9 15 29.77 1008 10 16 0.00 0.00
8:35 am 08:35 Sunny 48 9 37 3 66 66 W 9 15 29.77 1008 10 16 0.00 0.00
8:55 am 08:55 Sunny 48 9 37 3 66 66 W 10 17 29.80 1009 10 16 0.00 0.00
9:15 am 09:15 Sunny 50 10 37 3 62 62 WNW 12 19 29.77 1008 10 16 0.00 0.00
9:35 am 09:35 Sunny 52 11 37 3 58 58 NW 10 17 29.77 1008 10 16 0.00 0.00
9:55 am 09:55 Sunny 52 11 37 3 58 58 NW 12 19 29.77 1008 10 16 0.00 0.00
10:15 am 10:15 Sunny 54 12 39 4 58 58 NW 12 19 29.77 1008 10 16 0.00 0.00
10:35 am 10:35 Sunny 55 13 39 4 55 55 WNW 9 15 29.77 1008 10 16 0.00 0.00
10:55 am 10:55 Sunny 55 13 39 4 55 55 NW 14 22 29.77 1008 10 16 0.00 0.00
11:15 am 11:15 Sunny 57 14 39 4 51 51 WNW 10 17 29.74 1007 10 16 0.00 0.00
11:35 am 11:35 Sunny 57 14 39 4 51 51 NW 12 19 29.74 1007 10 16 0.00 0.00
11:55 am 11:55 Sunny 59 15 39 4 48 48 WNW 6 9 29.74 1007 10 16 0.00 0.00
12:15 pm 12:15 Sunny 61 16 39 4 45 45 WNW 9 15 29.71 1006 10 16 0.00 0.00
12:35 pm 12:35 Sunny 61 16 39 4 45 45 NW 10 17 29.71 1006 10 16 0.00 0.00
12:55 pm 12:55 Sunny 63 17 41 5 45 45 NW 5 7 29.68 1005 10 16 0.00 0.00
1:15 pm 13:15 Sunny 63 17 43 6 49 49 W 7 11 29.68 1005 10 16 0.00 0.00
1:35 pm 13:35 Sunny 63 17 43 6 49 49 NW 10 17 29.68 1005 10 16 0.00 0.00
1:55 pm 13:55 Sunny 64 18 41 5 43 43 NW 7 11 29.68 1005 10 16 0.00 0.00
2:15 pm 14:15 Sunny 64 18 41 5 43 43 NW 10 17 29.68 1005 10 16 0.00 0.00
2:35 pm 14:35 Sunny 64 18 43 6 46 46 NNW 8 13 29.65 1004 10 16 0.00 0.00
2:55 pm 14:55 Sunny 66 19 43 6 43 43 NW 7 11 29.68 1005 10 16 0.00 0.00
3:15 pm 15:15 Sunny 66 19 43 6 43 43 NNW 8 13 29.65 1004 10 16 0.00 0.00
3:35 pm 15:35 Sunny 68 20 43 6 40 40 NNW 9 15 29.65 1004 10 16 0.00 0.00
3:55 pm 15:55 Sunny 68 20 43 6 40 40 NW 5 7 29.65 1004 10 16 0.00 0.00
4:15 pm 16:15 Sunny 68 20 43 6 40 40 N 6 9 29.65 1004 10 16 0.00 0.00
4:35 pm 16:35 Sunny 70 21 43 6 38 38 Calm 29.62 1003 10 16 0.00 0.00
4:55 pm 16:55 Sunny 70 21 43 6 38 38 NE 5 7 29.62 1003 10 16 0.00 0.00
5:15 pm 17:15 Sunny 70 21 43 6 38 38 Calm 29.62 1003 10 16 0.00 0.00
5:35 pm 17:35 Sunny 70 21 43 6 38 38 Calm 29.62 1003 10 16 0.00 0.00
5:55 pm 17:55 Sunny 70 21 43 6 38 38 N 3 6 29.62 1003 10 16 0.00 0.00
6:15 pm 18:15 Sunny 72 22 43 6 36 36 E 3 6 29.62 1003 10 16 0.00 0.00
6:35 pm 18:35 Sunny 70 21 45 7 40 40 SSE 7 11 29.62 1003 10 16 0.00 0.00
6:55 pm 18:55 Sunny 70 21 43 6 38 38 E 5 7 29.62 1003 10 16 0.00 0.00
7:15 pm 19:15 Sunny 70 21 43 6 38 38 ESE 7 11 29.62 1003 10 16 0.00 0.00
7:35 pm 19:35 Sunny 66 19 45 7 46 46 ESE 3 6 29.65 1004 10 16 0.00 0.00
7:55 pm 19:55 Sunny 64 18 45 7 49 49 E 8 13 29.65 1004 10 16 0.00 0.00
8:15 pm 20:15 Sunny 63 17 43 6 49 49 E 7 11 29.65 1004 10 16 0.00 0.00
8:35 pm 20:35 Clear 61 16 45 7 55 55 ENE 8 13 29.68 1005 10 16 0.00 0.00
8:55 pm 20:55 Clear 59 15 45 7 59 59 NE 8 13 29.68 1005 9 14 0.00 0.00
9:15 pm 21:15 Clear 57 14 45 7 63 63 ENE 9 15 29.68 1005 10 16 0.00 0.00
9:35 pm 21:35 Clear 55 13 45 7 67 67 ENE 9 15 29.68 1005 10 16 0.00 0.00
9:55 pm 21:55 Clear 55 13 45 7 67 67 ENE 8 13 29.68 1005 10 16 0.00 0.00
10:15 pm 22:15 Clear 55 13 45 7 67 67 ENE 9 15 29.68 1005 10 16 0.00 0.00
10:35 pm 22:35 Clear 55 13 45 7 67 67 ENE 8 13 29.74 1007 10 16 0.00 0.00
10:55 pm 22:55 Clear 54 12 45 7 72 72 ENE 9 15 29.71 1006 10 16 0.00 0.00
11:15 pm 23:15 Clear 54 12 45 7 72 72 NE 10 17 29.74 1007 10 16 0.00 0.00
11:35 pm 23:35 Clear 55 13 45 7 67 67 ENE 9 15 29.74 1007 10 16 0.00 0.00
11:55 pm 23:55 Clear 54 12 45 7 72 72 ENE 9 15 29.74 1007 10 16 0.00 0.00

Powered by AerisWeather